This is the latest recevied weather packets stored in our database for station/object KY0TEQ-13. If no packets are shown the sender has not sent any weather packets the latest 10 day(s).
| Time | Temp. | Humidity | Pressure | Rain* | Wind** | Luminosity | Snow |
|---|---|---|---|---|---|---|---|
| 1788632004 | 25.56° C | 29% | 1310.2 hPa | 0 mm | - | 679 W/m² | - |
| 1788631703 | 25.56° C | 29% | 1310.6 hPa | 0 mm | - | 672 W/m² | - |
| 1788631399 | 25° C | 29% | 1310.5 hPa | 0 mm | - | 662 W/m² | - |
| 1788631094 | 25° C | 31% | 1310.7 hPa | 0 mm | - | 656 W/m² | - |
| 1788630788 | 25° C | 31% | 1310.5 hPa | 0 mm | - | 649 W/m² | - |
| 1788630484 | 25° C | 31% | 1310.6 hPa | 0 mm | - | 646 W/m² | - |
| 1788630179 | 25° C | 31% | 1310.5 hPa | 0 mm | - | 640 W/m² | - |
| 1788629875 | 24.44° C | 32% | 1310.8 hPa | 0 mm | - | 637 W/m² | - |
| 1788629571 | 23.89° C | 33% | 1311 hPa | 0 mm | - | 632 W/m² | - |
| 1788629270 | 23.89° C | 33% | 1310.8 hPa | 0 mm | - | 637 W/m² | - |
| 1788628969 | 23.89° C | 33% | 1310.8 hPa | 0 mm | - | 561 W/m² | - |
| 1788628665 | 23.89° C | 34% | 1311.2 hPa | 0 mm | - | 626 W/m² | - |
| 1788628362 | 23.33° C | 32% | 1311.1 hPa | 0 mm | - | 621 W/m² | - |
| 1788628058 | 23.89° C | 33% | 1311 hPa | 0 mm | - | 601 W/m² | - |
| 1788627753 | 22.78° C | 34% | 1311 hPa | 0 mm | - | 587 W/m² | - |
| 1788627452 | 23.33° C | 35% | 1310.8 hPa | 0 mm | - | 579 W/m² | - |
| 1788627148 | 23.33° C | 34% | 1311 hPa | 0 mm | - | 569 W/m² | - |
| 1788626848 | 23.33° C | 35% | 1311 hPa | 0 mm | - | 560 W/m² | - |
| 1788626542 | 23.33° C | 35% | 1310.8 hPa | 0 mm | - | 551 W/m² | - |
| 1788626239 | 23.33° C | 36% | 1311 hPa | 0 mm | - | 538 W/m² | - |
| 1788625935 | 22.22° C | 36% | 1311.1 hPa | 0 mm | - | 529 W/m² | - |
| 1788625631 | 22.22° C | 36% | 1311 hPa | 0 mm | - | 517 W/m² | - |
| 1788625330 | 22.22° C | 38% | 1311.1 hPa | 0 mm | - | 504 W/m² | - |
| 1788625025 | 21.67° C | 39% | 1311.1 hPa | 0 mm | - | 494 W/m² | - |
| 1788624723 | 21.67° C | 40% | 1311.1 hPa | 0 mm | - | 477 W/m² | - |
* Rain latest hour (hover to see other rain measurements)
** Current wind speed in m/s (hover to see current wind gust speed)